Temperature
-0 1 -0 -0 -0 -1 -2 -1 -1 0 0 2 2 1 1 2 2 2 2 2 2 2 2 2 1 1 1 1 1 2 2 2 2 3 3 3 4 4 5 5 5 6 6 6
-1 0 -0 0 1 0 -0 -0 -1 -0 1 2 2 1 1 1 2 1 2 2 2 2 1 1 1 1 1 1 1 1 2 2 2 3 3 3 4 4 5 5 5 6 6 6
-1 -1 -1 -0 0 0 -0 -1 -1 -0 1 1 0 0 1 1 1 1 2 2 2 1 1 1 1 1 1 1 1 1 1 2 2 2 3 3 4 4 4 5 5 5 5 6
-1 -2 -1 1 0 -0 -0 -0 -1 -0 0 0 0 1 2 2 2 2 2 2 1 1 1 1 1 0 0 0 1 1 1 1 1 2 2 3 3 4 4 4 4 5 5 5
-1 -2 -1 -0 0 -1 -1 -1 -1 -1 -0 -0 1 -0 1 3 2 2 2 1 1 1 1 0 0 0 0 0 0 0 1 1 1 1 2 2 3 3 3 4 4 4 5 5
-2 -2 -1 1 1 -0 -1 -1 -0 -1 -1 -1 -1 -2 0 2 2 2 1 1 1 0 0 0 0 -0 -0 -0 0 0 0 0 1 1 1 2 2 3 3 3 4 4 4 5
-1 -1 -1 0 -0 -0 -0 0 1 1 0 -0 -1 0 2 2 1 1 1 1 0 0 -0 -0 -0 -0 -1 -0 -0 -0 0 0 1 1 1 2 2 2 2 3 3 4 4 5
-2 -2 -0 0 -1 -1 0 2 2 2 2 1 1 2 1 1 1 1 0 0 -0 -0 -0 -1 -1 -1 -1 -1 -1 -0 -0 0 0 1 1 1 2 2 2 3 3 3 4 4
-2 0 1 0 1 2 2 1 2 2 2 1 1 1 1 0 0 0 -0 -0 -0 -1 -1 -1 -1 -1 -1 -1 -1 -1 -1 -0 0 1 1 1 1 2 2 2 2 3 3 4
-3 -2 -1 0 1 1 1 1 2 1 1 1 0 0 0 -0 -0 -0 -0 -1 -1 -1 -1 -1 -1 -1 -2 -2 -2 -1 -1 -1 -0 0 1 1 1 1 1 1 2 2 3 3
-3 -2 -2 -0 1 1 1 1 1 1 0 0 -0 -0 -1 -1 -1 -1 -1 -1 -2 -2 -2 -2 -2 -2 -2 -2 -2 -2 -1 -1 -1 -0 -0 0 1 1 1 1 1 2 2 2
-1 -1 -2 -1 2 1 1 1 0 0 -0 -0 -1 -1 -1 -1 -1 -1 -2 -2 -2 -2 -2 -2 -2 -2 -2 -2 -2 -2 -2 -2 -2 -1 -1 -0 0 1 1 1 2 2 2 2
1 1 1 1 1 0 -0 -0 -0 -1 -1 -1 -1 -1 -2 -2 -2 -2 -2 -2 -3 -3 -3 -3 -3 -3 -3 -3 -3 -3 -3 -2 -2 -2 -1 -1 -1 -0 0 1 2 2 2 3
0 -0 -1 -0 -0 -0 -1 -1 -1 -1 -2 -2 -2 -2 -2 -2 -3 -3 -3 -3 -3 -3 -3 -3 -3 -3 -3 -3 -3 -3 -3 -3 -2 -2 -2 -1 -1 -1 -0 0 1 2 2 3
-1 -1 -1 -1 -1 -1 -2 -2 -2 -2 -2 -2 -2 -3 -3 -3 -3 -3 -4 -4 -4 -4 -4 -4 -4 -4 -4 -4 -4 -3 -3 -3 -3 -3 -2 -2 -1 -1 -1 -0 0 0 1 2
-1 -1 -2 -2 -2 -2 -2 -3 -3 -3 -3 -3 -3 -3 -4 -4 -4 -4 -4 -4 -4 -4 -4 -4 -4 -4 -4 -4 -4 -4 -3 -3 -3 -3 -3 -2 -1 -1 -1 -1 -1 -0 0 1
-3 -3 -3 -3 -3 -3 -3 -3 -3 -4 -4 -4 -4 -4 -4 -4 -4 -5 -5 -5 -5 -5 -5 -5 -5 -5 -4 -4 -4 -4 -4 -4 -4 -3 -3 -2 -2 -2 -1 -1 -1 -0 -0 0
-3 -3 -3 -3 -3 -3 -4 -4 -4 -4 -4 -4 -5 -5 -5 -5 -5 -5 -5 -5 -5 -5 -5 -5 -5 -5 -5 -5 -5 -5 -4 -4 -4 -4 -3 -3 -2 -2 -1 -1 -1 -1 -0 0
-3 -3 -3 -4 -4 -4 -4 -4 -4 -5 -5 -5 -5 -5 -5 -6 -6 -6 -6 -6 -6 -6 -5 -5 -5 -5 -5 -5 -5 -5 -5 -5 -4 -4 -4 -3 -3 -2 -2 -2 -2 -1 -1 -0
-4 -4 -4 -4 -4 -4 -5 -5 -5 -5 -5 -6 -6 -6 -6 -6 -6 -6 -6 -6 -7 -6 -6 -6 -6 -6 -5 -5 -5 -5 -5 -5 -5 -4 -4 -4 -3 -3 -2 -2 -2 -2 -1 -1
-4 -4 -4 -5 -5 -5 -5 -5 -5 -6 -6 -6 -6 -6 -7 -7 -7 -7 -7 -7 -6 -6 -6 -6 -6 -6 -6 -6 -5 -5 -5 -5 -5 -5 -4 -4 -4 -3 -3 -2 -2 -2 -2 -1
-5 -5 -5 -5 -5 -5 -6 -6 -6 -6 -6 -7 -7 -7 -7 -7 -7 -7 -7 -7 -7 -7 -7 -6 -6 -6 -6 -6 -6 -5 -5 -5 -5 -5 -5 -4 -4 -4 -3 -3 -3 -2 -2 -1
-5 -5 -6 -6 -6 -6 -6 -6 -7 -7 -7 -7 -7 -7 -8 -8 -8 -8 -7 -7 -7 -7 -7 -7 -7 -7 -6 -6 -6 -6 -6 -5 -5 -5 -5 -4 -4 -4 -3 -3 -3 -2 -2 -1
-6 -6 -6 -6 -6 -7 -7 -7 -7 -7 -7 -8 -8 -8 -8 -8 -8 -8 -8 -8 -8 -7 -7 -7 -7 -7 -7 -6 -6 -6 -6 -5 -5 -5 -5 -5 -4 -4 -4 -3 -3 -2 -2 -1
-6 -6 -7 -7 -7 -7 -7 -7 -7 -8 -8 -8 -8 -8 -8 -8 -8 -8 -8 -8 -8 -8 -7 -7 -7 -7 -7 -7 -6 -6 -6 -6 -5 -5 -5 -5 -4 -4 -4 -3 -3 -3 -2 -2
-7 -7 -7 -7 -7 -8 -8 -8 -8 -8 -8 -8 -8 -8 -9 -9 -8 -8 -8 -8 -8 -8 -8 -7 -7 -7 -7 -7 -7 -6 -6 -6 -6 -5 -5 -5 -5 -4 -4 -4 -3 -3 -2 -2
-7 -7 -8 -8 -8 -8 -8 -8 -8 -8 -9 -9 -9 -9 -9 -9 -9 -8 -8 -8 -8 -8 -8 -8 -8 -8 -7 -7 -7 -7 -6 -6 -6 -6 -6 -5 -5 -5 -4 -4 -3 -3 -3 -2
Wind_Speed
12 12 9 12 13 13 16 15 15 17 20 26 21 16 15 14 14 13 13 12 12 12 11 11 11 11 11 11 11 11 10 9 10 10 8 7 6 6 6 6 7 7 7 6
9 10 12 18 20 19 20 18 21 24 26 24 18 13 13 13 13 13 13 13 13 12 11 11 11 11 11 11 11 10 10 10 10 10 8 7 5 4 4 5 5 5 5 6
8 5 7 13 14 15 11 11 12 18 19 15 13 13 12 11 12 12 13 13 12 11 11 11 10 10 11 11 11 10 10 10 10 10 9 7 6 5 4 3 3 3 4 5
4 3 11 9 4 8 11 13 14 15 15 13 14 12 11 11 11 12 11 11 10 10 10 10 9 9 10 10 10 10 10 11 10 10 9 7 6 5 4 3 2 2 3 3
4 6 11 10 5 6 8 10 12 16 17 14 11 8 9 9 8 9 10 10 9 9 9 9 9 9 9 10 10 10 10 11 11 9 9 7 7 6 5 4 3 3 2 2
6 6 9 9 4 4 2 8 8 9 12 10 4 6 10 8 7 9 9 8 8 8 7 8 9 8 8 9 10 10 10 11 10 9 8 8 7 6 4 4 4 3 2 2
11 10 11 8 4 6 4 8 4 5 7 7 6 9 9 9 8 8 8 9 8 7 7 7 7 7 8 9 10 10 10 10 10 9 7 7 7 5 4 4 4 3 2 2
8 9 12 6 8 9 10 4 4 6 6 8 10 11 10 10 10 9 9 8 7 6 7 7 6 6 8 9 10 9 9 9 10 9 7 6 6 5 4 3 4 3 2 2
11 12 6 7 9 7 4 6 7 7 8 8 9 10 10 10 9 9 8 8 6 6 7 7 6 5 7 9 9 9 9 9 9 9 7 6 6 5 4 3 3 3 2 1
8 12 10 9 10 9 9 9 9 8 8 8 9 10 10 9 8 8 7 6 5 5 6 7 7 6 7 9 8 8 9 9 8 8 7 6 5 4 3 3 3 3 3 2
10 9 8 10 11 12 11 9 9 9 8 8 8 9 9 8 8 7 7 6 5 5 6 7 7 7 7 7 8 8 8 8 8 7 7 6 6 4 4 4 4 4 3 2
12 9 8 8 7 7 8 9 9 8 8 7 7 8 8 8 7 6 6 6 6 6 6 7 7 8 8 7 7 7 8 7 6 6 7 6 5 5 6 5 8 8 6 4
11 8 8 8 7 6 6 8 7 7 8 8 7 6 7 7 6 5 6 6 6 7 7 7 7 8 8 7 7 7 7 7 6 6 6 6 5 4 5 6 7 6 5 6
9 6 7 8 8 7 6 6 6 6 6 6 6 5 5 5 5 5 6 6 6 6 6 6 7 8 8 7 7 8 7 7 7 6 6 6 5 4 3 4 4 5 5 6
9 9 9 7 5 5 4 3 4 5 5 5 4 4 5 5 6 6 6 6 5 5 6 6 7 8 7 7 7 8 7 5 5 5 6 6 5 3 3 3 3 3 4 4
6 5 6 5 6 5 4 4 5 6 6 5 5 5 5 5 5 5 5 4 5 6 7 7 8 8 7 7 7 6 6 9 8 5 5 5 4 3 2 2 2 2 2 2
4 5 5 5 6 5 5 5 5 5 5 5 5 4 4 4 4 5 5 5 5 6 6 6 8 8 7 7 6 5 5 7 9 6 5 5 4 3 2 2 2 2 2 3
6 6 5 5 5 5 5 4 4 4 4 4 3 3 3 4 5 6 6 6 6 6 6 6 7 7 7 6 5 5 5 5 5 5 5 5 4 2 1 1 1 1 2 3
3 3 3 3 3 3 3 3 3 3 3 2 2 3 3 4 4 5 5 5 6 7 8 7 11 8 7 8 8 4 5 5 5 5 4 6 4 2 1 1 1 1 1 2
0 1 1 0 1 0 1 1 1 1 2 1 1 2 3 4 4 5 5 5 5 6 7 9 8 7 6 7 8 4 5 5 5 5 4 3 2 2 1 1 1 1 1 1
1 1 2 2 2 2 1 0 0 1 2 2 1 2 4 5 5 4 5 6 6 7 8 10 7 6 6 7 8 4 4 4 4 4 4 3 2 2 1 0 0 1 1 1
1 1 1 1 2 2 2 2 1 1 2 2 2 3 3 4 5 5 5 5 7 10 7 5 5 8 9 9 4 4 5 5 5 4 3 2 2 1 1 1 1 1 0 0
0 0 1 1 0 1 2 2 2 2 2 3 3 3 4 4 4 4 6 5 5 9 7 5 9 12 12 6 4 4 5 5 5 4 3 2 2 1 1 1 1 1 1 1
0 1 1 1 1 1 2 3 3 2 3 3 3 4 4 4 4 3 4 8 10 11 6 9 12 12 10 5 4 4 4 4 4 4 3 2 2 1 1 1 1 1 1 1
0 1 1 1 1 1 2 2 3 3 3 3 4 4 4 3 4 5 5 6 9 9 6 9 12 12 7 4 4 4 4 4 4 3 2 2 1 1 1 1 1 2 2 2
1 0 0 1 1 1 2 2 2 3 3 4 4 4 4 3 4 4 4 5 7 9 7 5 6 7 5 5 5 5 5 5 5 3 2 1 0 1 1 1 2 2 2 2
1 1 1 1 2 1 1 2 2 3 3 3 4 4 4 4 4 4 5 5 5 5 5 5 4 4 5 5 5 5 4 4 3 2 1 1 0 1 1 2 2 2 2 3
Wind_Direction
253 262 254 249 246 223 221 226 241 259 264 274 281 284 289 291 295 300 300 302 304 306 307 310 312 314 315 316 319 322 325 321 314 310 305 301 289 277 266 257 247 239 228 228
265 255 257 266 257 243 239 239 244 260 270 271 278 281 283 286 291 295 294 297 301 305 309 312 313 314 316 317 319 324 326 322 323 326 319 315 305 295 284 269 253 243 231 222
272 284 295 266 244 231 226 219 222 246 258 277 286 284 284 288 289 287 289 293 298 303 305 307 309 312 315 316 320 324 324 328 329 328 323 320 316 311 299 282 261 246 237 231
270 313 254 250 208 211 229 244 231 244 260 270 270 281 282 275 273 280 285 290 295 300 303 306 309 315 318 321 324 325 327 328 329 327 322 321 322 318 315 303 286 263 257 261
227 253 272 281 239 197 216 262 237 241 259 267 278 299 289 270 258 266 274 280 285 290 295 304 310 317 322 326 328 329 330 327 328 326 322 324 325 322 325 325 306 283 270 259
213 233 253 256 223 184 146 278 252 226 249 266 291 301 293 293 281 278 281 284 289 297 303 308 312 321 325 324 328 326 322 321 322 323 320 320 318 316 321 319 305 300 286 263
226 241 261 252 188 136 198 253 258 218 241 249 237 248 276 296 291 285 286 290 295 299 300 300 310 321 321 320 320 317 318 318 321 323 319 318 320 317 322 323 322 316 296 285
201 224 250 205 153 192 226 257 266 260 254 254 260 274 285 289 289 292 295 298 300 300 299 304 313 320 316 313 313 319 321 318 319 321 321 328 326 321 328 332 331 321 309 314
201 222 244 184 205 229 240 258 264 264 269 267 273 280 286 288 288 290 291 295 298 293 298 306 312 313 308 309 317 322 324 323 322 322 321 326 325 323 331 342 329 321 309 309
242 255 254 253 260 264 256 254 262 264 270 268 268 278 284 286 289 292 292 294 302 304 303 306 313 312 303 310 316 320 323 322 323 325 326 328 325 322 324 322 315 315 319 328
248 265 279 262 249 253 258 259 263 267 266 265 268 276 278 282 285 287 292 297 299 293 293 298 309 310 312 315 320 321 321 320 324 326 325 324 321 317 310 289 297 307 307 306
242 238 228 255 256 249 251 259 263 269 276 273 261 270 277 278 279 284 290 296 300 297 298 300 305 306 311 315 317 317 319 319 321 322 323 319 318 324 324 313 323 320 307 306
240 247 240 258 267 256 254 263 266 263 265 273 274 266 271 277 284 286 291 297 296 294 295 299 302 302 307 312 312 308 308 310 313 317 318 318 316 319 327 339 343 343 343 343
238 243 258 256 259 264 260 266 269 271 267 264 268 273 275 281 288 290 291 293 294 296 299 299 299 299 304 309 309 306 306 306 311 308 310 313 312 311 316 323 336 345 357 3
238 232 241 259 270 272 271 273 278 281 281 280 276 279 284 286 289 292 295 300 303 304 305 306 305 305 310 310 308 308 309 308 308 305 307 309 308 310 319 322 329 333 343 2
242 242 243 251 258 266 273 268 267 275 280 280 285 286 284 284 289 296 305 313 311 306 305 307 305 307 311 311 309 307 306 307 311 309 310 312 313 317 324 329 334 334 340 348
220 242 242 256 260 265 263 258 256 267 276 278 281 289 297 303 306 310 312 312 302 296 298 302 304 308 311 309 307 305 305 308 311 313 310 306 307 306 311 325 331 333 333 333
219 230 233 236 246 255 267 274 273 275 277 280 289 298 300 300 299 302 308 315 316 314 311 311 311 316 315 314 312 305 302 302 305 307 306 304 305 301 306 309 309 324 342 356
227 225 233 239 237 231 254 275 281 283 289 295 298 297 297 299 301 305 313 320 322 319 319 319 321 324 316 314 316 304 301 301 302 304 302 303 309 313 302 294 308 338 344 355
175 173 149 41 19 222 250 287 293 307 309 308 316 319 317 314 315 315 315 307 299 296 305 313 316 314 313 312 314 308 304 301 300 304 304 304 308 308 296 305 340 345 343 354
86 70 71 62 34 19 9 327 310 318 323 325 308 297 299 306 312 314 315 309 308 309 314 318 321 315 313 313 312 310 308 304 299 299 298 298 299 300 288 286 322 319 332 352
74 70 66 63 62 21 3 9 4 346 341 332 323 316 314 312 313 309 293 283 301 315 321 313 312 313 318 316 311 306 302 300 296 292 286 281 278 276 277 254 256 269 260 131
64 86 81 62 57 11 1 3 360 346 324 315 312 308 300 296 298 301 306 305 308 315 320 308 312 318 322 323 315 307 302 300 299 294 281 267 258 250 246 241 221 192 170 153
64 53 52 29 54 42 354 336 339 330 316 309 304 300 297 302 302 285 283 307 318 318 315 313 320 323 328 332 324 317 310 304 302 298 284 266 253 243 225 200 179 167 157 142
79 73 61 56 22 316 309 322 333 332 327 321 314 310 300 278 277 296 302 306 314 320 317 317 322 324 329 325 320 316 312 306 302 300 294 279 257 223 172 161 168 161 150 140
23 3 307 286 278 285 296 306 313 318 321 321 319 315 313 307 297 300 306 308 308 315 317 313 316 319 321 318 315 313 311 309 307 309 312 304 256 171 157 150 153 151 145 136
29 17 4 342 326 303 291 292 298 305 307 305 306 309 313 316 318 318 315 315 315 314 313 314 315 316 316 316 314 314 312 310 307 305 307 300 242 169 157 157 157 148 142 143
Height
1469 1466 1468 1466 1465 1469 1470 1464 1460 1442 1436 1421 1417 1416 1413 1409 1405 1402 1398 1394 1390 1386 1382 1377 1371 1366 1361 1356 1351 1346 1341 1336 1332 1328 1325 1323 1322 1322 1322 1323 1324 1326 1327 1328
1466 1461 1461 1456 1450 1451 1451 1450 1446 1438 1428 1414 1413 1411 1408 1405 1402 1398 1394 1390 1386 1382 1378 1373 1368 1363 1358 1354 1348 1343 1338 1334 1329 1325 1322 1320 1319 1318 1318 1319 1320 1321 1322 1323
1463 1460 1458 1449 1436 1436 1437 1434 1435 1431 1418 1410 1410 1407 1404 1400 1397 1394 1390 1386 1383 1379 1375 1370 1365 1360 1355 1351 1346 1341 1336 1332 1328 1325 1322 1320 1318 1316 1315 1316 1317 1317 1318 1319
1462 1463 1456 1429 1425 1425 1426 1423 1422 1417 1411 1408 1405 1401 1399 1396 1393 1389 1387 1383 1380 1376 1371 1367 1362 1358 1353 1349 1344 1339 1335 1330 1327 1323 1320 1318 1316 1314 1313 1313 1314 1314 1315 1316
1460 1460 1444 1427 1421 1422 1424 1418 1411 1410 1406 1403 1401 1398 1393 1391 1389 1386 1384 1381 1377 1374 1370 1365 1360 1356 1351 1347 1343 1338 1334 1330 1326 1323 1320 1317 1314 1313 1311 1311 1312 1312 1313 1314
1455 1454 1442 1420 1416 1415 1419 1416 1402 1402 1401 1399 1399 1400 1390 1386 1385 1382 1379 1377 1374 1370 1367 1362 1358 1354 1350 1346 1341 1337 1333 1329 1326 1323 1320 1317 1314 1312 1311 1311 1311 1311 1312 1312
1446 1443 1428 1413 1412 1415 1421 1408 1398 1396 1396 1395 1395 1393 1387 1384 1381 1379 1376 1373 1370 1367 1364 1360 1356 1352 1348 1344 1340 1337 1333 1329 1325 1323 1320 1317 1314 1313 1311 1310 1310 1310 1311 1311
1440 1438 1423 1405 1409 1409 1401 1395 1394 1393 1392 1391 1388 1386 1383 1380 1378 1375 1372 1369 1367 1363 1360 1358 1354 1350 1347 1343 1339 1335 1332 1329 1325 1322 1319 1317 1314 1313 1312 1311 1310 1310 1310 1310
1419 1410 1400 1398 1397 1394 1394 1393 1391 1389 1388 1387 1384 1382 1379 1377 1374 1372 1369 1366 1363 1360 1357 1354 1352 1349 1345 1341 1337 1333 1330 1327 1324 1321 1319 1316 1314 1312 1311 1311 1310 1310 1310 1311
1410 1399 1395 1394 1392 1391 1390 1388 1386 1386 1384 1383 1380 1377 1375 1373 1370 1368 1365 1363 1360 1357 1354 1351 1349 1346 1343 1339 1336 1332 1328 1325 1323 1320 1317 1315 1314 1312 1311 1311 1310 1310 1309 1310
1401 1393 1391 1386 1385 1384 1384 1383 1381 1380 1379 1378 1375 1373 1371 1369 1366 1364 1362 1359 1357 1354 1351 1348 1346 1343 1341 1337 1334 1330 1327 1324 1321 1318 1316 1314 1313 1312 1311 1311 1311 1310 1309 1309
1388 1383 1384 1380 1379 1379 1378 1377 1376 1375 1373 1372 1371 1369 1367 1365 1362 1360 1358 1355 1353 1350 1348 1345 1343 1340 1338 1335 1332 1328 1325 1323 1320 1317 1315 1314 1312 1311 1310 1310 1310 1310 1310 1310
1376 1376 1376 1375 1374 1374 1373 1372 1371 1370 1369 1367 1366 1364 1362 1360 1358 1356 1354 1352 1349 1347 1345 1342 1340 1337 1334 1332 1329 1327 1324 1321 1319 1316 1314 1312 1311 1310 1308 1308 1308 1308 1308 1308
1371 1372 1371 1370 1369 1369 1368 1367 1366 1365 1364 1363 1361 1360 1358 1356 1354 1352 1350 1348 1346 1343 1341 1339 1336 1334 1331 1329 1326 1323 1321 1319 1317 1315 1313 1311 1310 1309 1308 1307 1306 1306 1307 1308
1366 1366 1366 1364 1364 1364 1363 1362 1361 1360 1359 1358 1357 1355 1354 1352 1350 1348 1346 1344 1342 1340 1337 1335 1332 1330 1328 1326 1323 1321 1318 1316 1315 1313 1311 1310 1309 1309 1308 1307 1307 1307 1307 1307
1360 1360 1360 1360 1359 1359 1359 1358 1357 1356 1354 1353 1352 1351 1350 1348 1346 1344 1342 1340 1338 1336 1334 1332 1329 1327 1325 1323 1320 1318 1316 1315 1313 1311 1310 1308 1308 1307 1308 1308 1308 1307 1307 1307
1356 1355 1355 1355 1354 1354 1354 1354 1353 1352 1351 1349 1348 1347 1346 1344 1342 1341 1339 1337 1335 1333 1331 1329 1326 1324 1322 1320 1318 1315 1314 1312 1311 1310 1308 1307 1307 1307 1307 1307 1307 1307 1308 1308
1351 1351 1351 1351 1351 1350 1350 1350 1349 1348 1347 1346 1346 1344 1343 1341 1339 1338 1336 1334 1332 1330 1328 1326 1324 1321 1319 1317 1315 1314 1312 1310 1309 1308 1307 1306 1306 1306 1306 1306 1307 1307 1308 1309
1347 1348 1348 1348 1348 1348 1347 1347 1346 1346 1345 1344 1343 1341 1340 1339 1337 1335 1334 1331 1329 1326 1324 1323 1321 1319 1317 1315 1313 1311 1310 1308 1307 1306 1305 1305 1305 1305 1306 1306 1306 1307 1307 1308
1344 1345 1345 1345 1345 1345 1345 1345 1344 1343 1342 1341 1340 1339 1338 1336 1335 1333 1331 1329 1327 1325 1323 1321 1318 1316 1314 1312 1311 1309 1308 1307 1306 1305 1304 1304 1304 1304 1305 1305 1305 1306 1307 1308
1343 1343 1343 1343 1343 1343 1343 1343 1342 1341 1340 1340 1338 1337 1336 1334 1333 1331 1328 1326 1325 1323 1321 1318 1316 1314 1312 1310 1308 1307 1306 1305 1304 1303 1303 1303 1303 1303 1303 1304 1305 1305 1306 1308
1342 1342 1342 1342 1342 1342 1342 1341 1341 1340 1339 1338 1336 1335 1334 1332 1330 1328 1326 1325 1322 1320 1318 1316 1314 1312 1310 1309 1307 1305 1304 1303 1303 1302 1302 1301 1302 1302 1302 1303 1304 1305 1306 1308
1341 1341 1341 1341 1341 1341 1340 1340 1339 1338 1337 1336 1335 1333 1332 1330 1328 1326 1324 1322 1320 1318 1316 1314 1312 1310 1309 1306 1305 1303 1302 1301 1300 1300 1300 1300 1300 1301 1301 1302 1303 1304 1306 1308
1341 1341 1341 1341 1340 1340 1339 1338 1338 1337 1336 1334 1333 1331 1330 1328 1326 1325 1323 1320 1318 1316 1314 1312 1310 1308 1306 1304 1303 1301 1300 1299 1298 1298 1298 1298 1299 1299 1300 1301 1302 1304 1306 1307
1340 1340 1340 1340 1339 1339 1338 1337 1336 1335 1334 1332 1331 1329 1328 1326 1324 1322 1320 1318 1316 1314 1312 1310 1308 1306 1304 1302 1301 1300 1298 1298 1297 1297 1297 1297 1297 1298 1299 1300 1302 1303 1305 1307
1339 1339 1339 1339 1339 1338 1337 1336 1334 1333 1332 1330 1329 1327 1325 1324 1322 1319 1318 1316 1314 1312 1309 1307 1305 1304 1302 1300 1299 1298 1297 1296 1296 1295 1295 1295 1296 1297 1298 1299 1301 1303 1305 1308
1338 1338 1338 1337 1337 1336 1335 1334 1333 1332 1330 1328 1327 1325 1323 1321 1319 1317 1315 1313 1311 1309 1307 1305 1303 1302 1300 1299 1297 1296 1295 1294 1294 1294 1294 1294 1294 1295 1297 1299 1301 1303 1306 1308